Regional Weather Roundup
Issued by NWS

Home | Current Version | Previous Version | Graphics & Text | Print | Product List | Glossary On
Versions: 1 2 3 4 5 6 7 8 9 10 11 12 13 14 15 16 17 18 19 20 21 22 23 24 25 26 27 28 29 30 31 32 33 34 35 36 37 38 39 40 41 42 43 44 45 46 47 48 49 50
000
ASUS45 KSLC 271310
RWRUT

UTAH REGIONAL WEATHER ROUNDUP
NATIONAL WEATHER SERVICE SALT LAKE CITY UT
700 AM MDT WED AUG 27 2014

UTZ001>011-023>025-271400-

NORTHERN UTAH

CITY           SKY/WX    TMP DP  RH WIND       PRES   REMARKS
HILL AFB       CLOUDY    57  50  77 SE5       30.23R
LOGAN          CLOUDY    55  53  93 CALM      30.21R
OGDEN          MOCLDY    60  50  69 S5        30.21R
PROVO AIRPORT  MOCLDY    57  54  88 S6        30.23R
SALT LAKE CITY CLOUDY    60  56  86 S7        30.20R
VERNAL         CLOUDY    58  54  86 CALM      30.24R
WENDOVER       PTCLDY    57  48  72 W5        30.20R
HEBER CITY     CLOUDY    54  50  87 CALM      30.25R
WEST JORDAN    CLOUDY    59  59 100 CALM      30.22R

$$

UTZ012>022-026-027-271400-

SOUTHERN UTAH

CITY           SKY/WX    TMP DP  RH WIND       PRES   REMARKS
BRYCE CANYON   CLEAR     37  36  96 CALM      30.36R
CEDAR CITY     CLEAR     49  45  86 S3        30.26R
MILFORD        PTCLDY    51  49  92 S3        30.24R
MOAB/CYNLANDS  PTCLDY    59  56  89 E5        30.20R
PRICE          CLOUDY    57  50  77 NE3       30.25R
ST GEORGE      CLOUDY    63  52  67 N6        30.18R

$$

REGIONAL REPORTS     COLORADO/ARIZONA

CITY           SKY/WX    TMP DP  RH WIND       PRES   REMARKS
CRAIG, CO      CLOUDY    54  51  90 SE3       30.30R
GRAND JUNCTION LGT RAIN  57  55  93 SE8       30.23R
RIFLE          CLOUDY    55  54  96 CALM      30.27R
MONTROSE       MOCLDY    55  53  93 SE6       30.32R
CORTEZ         CLOUDY    52  52 100 CALM      30.34R
PAGE, AZ       CLEAR     59  49  69 SW3       30.24R
GRAND CANYON   PTCLDY    48  46  93 CALM      30.35
KINGMAN        CLEAR     67  58  72 SE7       30.12R
FLAGSTAFF      FOG       51  50  96 CALM      30.38S VSB 3/4

$$

REGIONAL REPORTS    NEVADA/IDAHO/WYOMING

CITY           SKY/WX    TMP DP  RH WIND       PRES   REMARKS
LAS VEGAS, NV  CLEAR     75  45  34 CALM      30.02R
ELY            CLOUDY    41  39  93 S12       30.31R
ELKO           CLEAR     48  43  82 NE5       30.24R
POCATELLO, ID  CLEAR     48  47  96 CALM      30.20R
BURLEY         CLEAR     50  47  89 SW3       30.18R
EVANSTON, WY   CLOUDY    51  45  79 CALM      30.31R
ROCK SPRINGS   LGT RAIN  51  48  89 SE7       30.30R

$$



USA.gov is the U.S. government's official web portal to all federal, state and local government web resources and services.